Year,Month,Day,Hour,Minute,Value (Times are PST for temperature in C)
2009,09,22,00,00,15.90
2009,09,22,00,01,15.90
2009,09,22,00,02,15.90
2009,09,22,00,03,15.90
2009,09,22,00,04,15.90
2009,09,22,00,05,15.80
2009,09,22,00,06,15.80
2009,09,22,00,07,15.80
2009,09,22,00,08,15.80
2009,09,22,00,09,15.80
2009,09,22,00,10,15.80
2009,09,22,00,11,15.90
2009,09,22,00,12,15.90
2009,09,22,00,13,15.90
2009,09,22,00,14,15.90
2009,09,22,00,15,16.00
2009,09,22,00,16,16.00
2009,09,22,00,17,16.00
2009,09,22,00,18,16.00
2009,09,22,00,19,16.10
2009,09,22,00,20,16.10
2009,09,22,00,21,16.10
2009,09,22,00,22,16.10
2009,09,22,00,23,16.10
2009,09,22,00,24,16.10
2009,09,22,00,25,16.10
2009,09,22,00,26,16.10
2009,09,22,00,27,16.10
2009,09,22,00,28,16.20
2009,09,22,00,29,16.20
2009,09,22,00,30,16.20
2009,09,22,00,31,16.20
2009,09,22,00,32,16.20
2009,09,22,00,33,16.20
2009,09,22,00,34,16.20
2009,09,22,00,35,16.20
2009,09,22,00,36,16.20
2009,09,22,00,37,16.30
2009,09,22,00,38,16.20
2009,09,22,00,39,16.20
2009,09,22,00,40,16.20
2009,09,22,00,41,16.20
2009,09,22,00,42,16.20
2009,09,22,00,43,16.10
2009,09,22,00,44,16.10
2009,09,22,00,45,16.00
2009,09,22,00,46,16.00
2009,09,22,00,47,16.00
2009,09,22,00,48,15.90
2009,09,22,00,49,15.90
2009,09,22,00,50,15.80
2009,09,22,00,51,15.80
2009,09,22,00,52,15.80
2009,09,22,00,53,15.80
2009,09,22,00,54,15.80
2009,09,22,00,55,15.80
2009,09,22,00,56,15.80
2009,09,22,00,57,15.80
2009,09,22,00,58,15.80
2009,09,22,00,59,15.80
2009,09,22,01,00,15.80
2009,09,22,01,01,15.80
2009,09,22,01,02,15.80
2009,09,22,01,03,15.90
2009,09,22,01,04,15.80
2009,09,22,01,05,15.90
2009,09,22,01,06,15.80
2009,09,22,01,07,15.80
2009,09,22,01,08,15.80
2009,09,22,01,09,15.80
2009,09,22,01,10,15.80
2009,09,22,01,11,15.80
2009,09,22,01,12,15.80
2009,09,22,01,13,15.80
2009,09,22,01,14,15.70
2009,09,22,01,15,15.70
2009,09,22,01,16,15.70
2009,09,22,01,17,15.70
2009,09,22,01,18,15.60
2009,09,22,01,19,15.60
2009,09,22,01,20,15.60
2009,09,22,01,21,15.60
2009,09,22,01,22,15.50
2009,09,22,01,23,15.50
2009,09,22,01,24,15.60
2009,09,22,01,25,15.60
2009,09,22,01,26,15.60
2009,09,22,01,27,15.70
2009,09,22,01,28,15.70
2009,09,22,01,29,15.80
2009,09,22,01,30,15.80
2009,09,22,01,31,15.80
2009,09,22,01,32,15.90
2009,09,22,01,33,15.90
2009,09,22,01,34,15.90
2009,09,22,01,35,15.90
2009,09,22,01,36,15.90
2009,09,22,01,37,15.90
2009,09,22,01,38,15.90
2009,09,22,01,39,15.90
2009,09,22,01,40,16.00
2009,09,22,01,41,15.90
2009,09,22,01,42,15.90
2009,09,22,01,43,15.90
2009,09,22,01,44,15.90
2009,09,22,01,45,15.90
2009,09,22,01,46,15.90
2009,09,22,01,47,15.90
2009,09,22,01,48,15.90
2009,09,22,01,49,15.90
2009,09,22,01,50,15.90
2009,09,22,01,51,15.90
2009,09,22,01,52,15.80
2009,09,22,01,53,15.80
2009,09,22,01,54,15.80
2009,09,22,01,55,15.70
2009,09,22,01,56,15.70
2009,09,22,01,57,15.70
2009,09,22,01,58,15.60
2009,09,22,01,59,15.60
2009,09,22,02,00,15.60
2009,09,22,02,01,15.60
2009,09,22,02,02,15.60
2009,09,22,02,03,15.60
2009,09,22,02,04,15.60
2009,09,22,02,05,15.50
2009,09,22,02,06,15.50
2009,09,22,02,07,15.40
2009,09,22,02,08,15.40
2009,09,22,02,09,15.40
2009,09,22,02,10,15.40
2009,09,22,02,11,15.30
2009,09,22,02,12,15.30
2009,09,22,02,13,15.40
2009,09,22,02,14,15.40
2009,09,22,02,15,15.40
2009,09,22,02,16,15.50
2009,09,22,02,17,15.50
2009,09,22,02,18,15.60
2009,09,22,02,19,15.60
2009,09,22,02,20,15.60
2009,09,22,02,21,15.70
2009,09,22,02,22,15.70
2009,09,22,02,23,15.80
2009,09,22,02,24,15.80
2009,09,22,02,25,15.80
2009,09,22,02,26,15.80
2009,09,22,02,27,15.80
2009,09,22,02,28,15.80
2009,09,22,02,29,15.80
2009,09,22,02,30,15.80
2009,09,22,02,31,15.80
2009,09,22,02,32,15.80
2009,09,22,02,33,15.80
2009,09,22,02,34,15.70
2009,09,22,02,35,15.70
2009,09,22,02,36,15.70
2009,09,22,02,37,15.60
2009,09,22,02,38,15.50
2009,09,22,02,39,15.40
2009,09,22,02,40,15.30
2009,09,22,02,41,15.30
2009,09,22,02,42,15.20
2009,09,22,02,43,15.10
2009,09,22,02,44,15.00
2009,09,22,02,45,15.00
2009,09,22,02,46,15.00
2009,09,22,02,47,15.00
2009,09,22,02,48,15.00
2009,09,22,02,49,15.00
2009,09,22,02,50,15.00
2009,09,22,02,51,15.00
2009,09,22,02,52,15.00
2009,09,22,02,53,15.00
2009,09,22,02,54,15.00
2009,09,22,02,55,15.00
2009,09,22,02,56,15.00
2009,09,22,02,57,15.00
2009,09,22,02,58,15.10
2009,09,22,02,59,15.20
2009,09,22,03,00,15.20
2009,09,22,03,01,15.30
2009,09,22,03,02,15.30
2009,09,22,03,03,15.30
2009,09,22,03,04,15.30
2009,09,22,03,05,15.30
2009,09,22,03,06,15.30
2009,09,22,03,07,15.30
2009,09,22,03,08,15.30
2009,09,22,03,09,15.30
2009,09,22,03,10,15.20
2009,09,22,03,11,15.20
2009,09,22,03,12,15.20
2009,09,22,03,13,15.10
2009,09,22,03,14,15.10
2009,09,22,03,15,15.00
2009,09,22,03,16,15.00
2009,09,22,03,17,15.00
2009,09,22,03,18,15.00
2009,09,22,03,19,15.00
2009,09,22,03,20,15.00
2009,09,22,03,21,15.00
2009,09,22,03,22,15.00
2009,09,22,03,23,15.00
2009,09,22,03,24,15.00
2009,09,22,03,25,14.90
2009,09,22,03,26,14.90
2009,09,22,03,27,14.80
2009,09,22,03,28,14.80
2009,09,22,03,29,14.80
2009,09,22,03,30,14.80
2009,09,22,03,31,14.80
2009,09,22,03,32,14.80
2009,09,22,03,33,14.80
2009,09,22,03,34,14.80
2009,09,22,03,35,14.80
2009,09,22,03,36,14.80
2009,09,22,03,37,14.80
2009,09,22,03,38,14.80
2009,09,22,03,39,14.70
2009,09,22,03,40,14.70
2009,09,22,03,41,14.70
2009,09,22,03,42,14.70
2009,09,22,03,43,14.70
2009,09,22,03,44,14.70
2009,09,22,03,45,14.70
2009,09,22,03,46,14.70
2009,09,22,03,47,14.70
2009,09,22,03,48,14.70
2009,09,22,03,49,14.70
2009,09,22,03,50,14.80
2009,09,22,03,51,14.80
2009,09,22,03,52,14.80
2009,09,22,03,53,14.70
2009,09,22,03,54,14.70
2009,09,22,03,55,14.70
2009,09,22,03,56,14.70
2009,09,22,03,57,14.70
2009,09,22,03,58,14.60
2009,09,22,03,59,14.60
2009,09,22,04,00,14.60
2009,09,22,04,01,14.60
2009,09,22,04,02,14.60
2009,09,22,04,03,14.50
2009,09,22,04,04,14.50
2009,09,22,04,05,14.50
2009,09,22,04,06,14.50
2009,09,22,04,07,14.50
2009,09,22,04,08,14.40
2009,09,22,04,09,14.40
2009,09,22,04,10,14.40
2009,09,22,04,11,14.40
2009,09,22,04,12,14.40
2009,09,22,04,13,14.30
2009,09,22,04,14,14.30
2009,09,22,04,15,14.30
2009,09,22,04,16,14.20
2009,09,22,04,17,14.20
2009,09,22,04,18,14.20
2009,09,22,04,19,14.20
2009,09,22,04,20,14.20
2009,09,22,04,21,14.10
2009,09,22,04,22,14.10
2009,09,22,04,23,14.10
2009,09,22,04,24,14.10
2009,09,22,04,25,14.10
2009,09,22,04,26,14.10
2009,09,22,04,27,14.10
2009,09,22,04,28,14.10
2009,09,22,04,29,14.00
2009,09,22,04,30,14.00
2009,09,22,04,31,14.10
2009,09,22,04,32,14.10
2009,09,22,04,33,14.10
2009,09,22,04,34,14.20
2009,09,22,04,35,14.20
2009,09,22,04,36,14.20
2009,09,22,04,37,14.20
2009,09,22,04,38,14.20
2009,09,22,04,39,14.20
2009,09,22,04,40,14.30
2009,09,22,04,41,14.30
2009,09,22,04,42,14.30
2009,09,22,04,43,14.30
2009,09,22,04,44,14.30
2009,09,22,04,45,14.30
2009,09,22,04,46,14.20
2009,09,22,04,47,14.20
2009,09,22,04,48,14.20
2009,09,22,04,49,14.20
2009,09,22,04,50,14.10
2009,09,22,04,51,14.10
2009,09,22,04,52,14.10
2009,09,22,04,53,14.10
2009,09,22,04,54,14.10
2009,09,22,04,55,14.10
2009,09,22,04,56,14.10
2009,09,22,04,57,14.10
2009,09,22,04,58,14.20
2009,09,22,04,59,14.20
2009,09,22,05,00,14.20
2009,09,22,05,01,14.20
2009,09,22,05,02,14.20
2009,09,22,05,03,14.20
2009,09,22,05,04,14.20
2009,09,22,05,05,14.20
2009,09,22,05,06,14.20
2009,09,22,05,07,14.20
2009,09,22,05,08,14.20
2009,09,22,05,09,14.20
2009,09,22,05,10,14.20
2009,09,22,05,11,14.20
2009,09,22,05,12,14.20
2009,09,22,05,13,14.20
2009,09,22,05,14,14.20
2009,09,22,05,15,14.20
2009,09,22,05,16,14.20
2009,09,22,05,17,14.20
2009,09,22,05,18,14.20
2009,09,22,05,19,14.30
2009,09,22,05,20,14.30
2009,09,22,05,21,14.30
2009,09,22,05,22,14.30
2009,09,22,05,23,14.30
2009,09,22,05,24,14.30
2009,09,22,05,25,14.30
2009,09,22,05,26,14.20
2009,09,22,05,27,14.20
2009,09,22,05,28,14.20
2009,09,22,05,29,14.30
2009,09,22,05,30,14.30
2009,09,22,05,31,14.30
2009,09,22,05,32,14.30
2009,09,22,05,33,14.30
2009,09,22,05,34,14.30
2009,09,22,05,35,14.30
2009,09,22,05,36,14.40
2009,09,22,05,37,14.40
2009,09,22,05,38,14.30
2009,09,22,05,39,14.30
2009,09,22,05,40,14.30
2009,09,22,05,41,14.30
2009,09,22,05,42,14.30
2009,09,22,05,43,14.30
2009,09,22,05,44,14.20
2009,09,22,05,45,14.20
2009,09,22,05,46,14.20
2009,09,22,05,47,14.10
2009,09,22,05,48,14.10
2009,09,22,05,49,14.10
2009,09,22,05,50,14.00
2009,09,22,05,51,13.90
2009,09,22,05,52,13.90
2009,09,22,05,53,13.90
2009,09,22,05,54,13.80
2009,09,22,05,55,13.80
2009,09,22,05,56,13.80
2009,09,22,05,57,13.80
2009,09,22,05,58,13.70
2009,09,22,05,59,13.70
2009,09,22,06,00,13.70
2009,09,22,06,01,13.60
2009,09,22,06,02,13.60
2009,09,22,06,03,13.50
2009,09,22,06,04,13.50
2009,09,22,06,05,13.40
2009,09,22,06,06,13.40
2009,09,22,06,07,13.30
2009,09,22,06,08,13.30
2009,09,22,06,09,13.20
2009,09,22,06,10,13.20
2009,09,22,06,11,13.20
2009,09,22,06,12,13.10
2009,09,22,06,13,13.10
2009,09,22,06,14,13.10
2009,09,22,06,15,13.10
2009,09,22,06,16,13.00
2009,09,22,06,17,13.00
2009,09,22,06,18,13.00
2009,09,22,06,19,12.90
2009,09,22,06,20,12.90
2009,09,22,06,21,12.80
2009,09,22,06,22,12.80
2009,09,22,06,23,12.80
2009,09,22,06,24,12.70
2009,09,22,06,25,12.70
2009,09,22,06,26,12.70
2009,09,22,06,27,12.70
2009,09,22,06,28,12.70
2009,09,22,06,29,12.70
2009,09,22,06,30,12.60
2009,09,22,06,31,12.60
2009,09,22,06,32,12.60
2009,09,22,06,33,12.60
2009,09,22,06,34,12.60
2009,09,22,06,35,12.60
2009,09,22,06,36,12.60
2009,09,22,06,37,12.60
2009,09,22,06,38,12.60
2009,09,22,06,39,12.50
2009,09,22,06,40,12.50
2009,09,22,06,41,12.40
2009,09,22,06,42,12.40
2009,09,22,06,43,12.40
2009,09,22,06,44,12.30
2009,09,22,06,45,12.30
2009,09,22,06,46,12.30
2009,09,22,06,47,12.30
2009,09,22,06,48,12.30
2009,09,22,06,49,12.30
2009,09,22,06,50,12.30
2009,09,22,06,51,12.30
2009,09,22,06,52,12.30
2009,09,22,06,53,12.40
2009,09,22,06,54,12.40
2009,09,22,06,55,12.40
2009,09,22,06,56,12.40
2009,09,22,06,57,12.40
2009,09,22,06,58,12.40
2009,09,22,06,59,12.40
2009,09,22,07,00,12.40
2009,09,22,07,01,12.40
2009,09,22,07,02,12.40
2009,09,22,07,03,12.40
2009,09,22,07,04,12.40
2009,09,22,07,05,12.40
2009,09,22,07,06,12.40
2009,09,22,07,07,12.40
2009,09,22,07,08,12.50
2009,09,22,07,09,12.50
2009,09,22,07,10,12.60
2009,09,22,07,11,12.60
2009,09,22,07,12,12.60
2009,09,22,07,13,12.60
2009,09,22,07,14,12.60
2009,09,22,07,15,12.60
2009,09,22,07,16,12.60
2009,09,22,07,17,12.60
2009,09,22,07,18,12.60
2009,09,22,07,19,12.60
2009,09,22,07,20,12.60
2009,09,22,07,21,12.60
2009,09,22,07,22,12.60
2009,09,22,07,23,12.60
2009,09,22,07,24,12.60
2009,09,22,07,25,12.70
2009,09,22,07,26,12.70
2009,09,22,07,27,12.70
2009,09,22,07,28,12.70
2009,09,22,07,29,12.80
2009,09,22,07,30,12.80
2009,09,22,07,31,12.80
2009,09,22,07,32,12.80
2009,09,22,07,33,12.80
2009,09,22,07,34,12.80
2009,09,22,07,35,12.80
2009,09,22,07,36,12.80
2009,09,22,07,37,12.80
2009,09,22,07,38,12.80
2009,09,22,07,39,12.80
2009,09,22,07,40,12.80
2009,09,22,07,41,12.80
2009,09,22,07,42,12.80
2009,09,22,07,43,12.80
2009,09,22,07,44,12.80
2009,09,22,07,45,12.80
2009,09,22,07,46,12.80
2009,09,22,07,47,12.80
2009,09,22,07,48,12.80
2009,09,22,07,49,12.80
2009,09,22,07,50,12.80
2009,09,22,07,51,12.80
2009,09,22,07,52,12.80
2009,09,22,07,53,12.80
2009,09,22,07,54,12.80
2009,09,22,07,55,12.80
2009,09,22,07,56,12.80
2009,09,22,07,57,12.80
2009,09,22,07,58,12.80
2009,09,22,07,59,12.80
2009,09,22,08,00,12.90
2009,09,22,08,01,12.90
2009,09,22,08,02,13.00
2009,09,22,08,03,13.10
2009,09,22,08,04,13.10
2009,09,22,08,05,13.10
2009,09,22,08,06,13.20
2009,09,22,08,07,13.20
2009,09,22,08,08,13.20
2009,09,22,08,09,13.30
2009,09,22,08,10,13.30
2009,09,22,08,11,13.40
2009,09,22,08,12,13.40
2009,09,22,08,13,13.40
2009,09,22,08,14,13.50
2009,09,22,08,15,13.50
2009,09,22,08,16,13.60
2009,09,22,08,17,13.60
2009,09,22,08,18,13.60
2009,09,22,08,19,13.70
2009,09,22,08,20,13.70
2009,09,22,08,21,13.70
2009,09,22,08,22,13.70
2009,09,22,08,23,13.80
2009,09,22,08,24,13.80
2009,09,22,08,25,13.90
2009,09,22,08,26,13.90
2009,09,22,08,27,13.90
2009,09,22,08,28,14.00
2009,09,22,08,29,14.00
2009,09,22,08,30,14.10
2009,09,22,08,31,14.10
2009,09,22,08,32,14.20
2009,09,22,08,33,14.20
2009,09,22,08,34,14.20
2009,09,22,08,35,14.30
2009,09,22,08,36,14.30
2009,09,22,08,37,14.30
2009,09,22,08,38,14.40
2009,09,22,08,39,14.40
2009,09,22,08,40,14.40
2009,09,22,08,41,14.50
2009,09,22,08,42,14.50
2009,09,22,08,43,14.60
2009,09,22,08,44,14.60
2009,09,22,08,45,14.70
2009,09,22,08,46,14.80
2009,09,22,08,47,14.90
2009,09,22,08,48,15.00
2009,09,22,08,49,15.00
2009,09,22,08,50,15.00
2009,09,22,08,51,15.10
2009,09,22,08,52,15.20
2009,09,22,08,53,15.30
2009,09,22,08,54,15.30
2009,09,22,08,55,15.40
2009,09,22,08,56,15.50
2009,09,22,08,57,15.50
2009,09,22,08,58,15.60
2009,09,22,08,59,15.70
2009,09,22,09,00,15.70
2009,09,22,09,01,15.80
2009,09,22,09,02,15.80
2009,09,22,09,03,15.90
2009,09,22,09,04,16.00
2009,09,22,09,05,16.00
2009,09,22,09,06,16.10
2009,09,22,09,07,16.20
2009,09,22,09,08,16.20
2009,09,22,09,09,16.20
2009,09,22,09,10,16.30
2009,09,22,09,11,16.30
2009,09,22,09,12,16.30
2009,09,22,09,13,16.40
2009,09,22,09,14,16.40
2009,09,22,09,15,16.50
2009,09,22,09,16,16.50
2009,09,22,09,17,16.60
2009,09,22,09,18,16.60
2009,09,22,09,19,16.70
2009,09,22,09,20,16.70
2009,09,22,09,21,16.70
2009,09,22,09,22,16.80
2009,09,22,09,23,16.80
2009,09,22,09,24,16.90
2009,09,22,09,25,16.90
2009,09,22,09,26,16.90
2009,09,22,09,27,17.00
2009,09,22,09,28,17.00
2009,09,22,09,29,17.10
2009,09,22,09,30,17.10
2009,09,22,09,31,17.20
2009,09,22,09,32,17.30
2009,09,22,09,33,17.30
2009,09,22,09,34,17.30
2009,09,22,09,35,17.40
2009,09,22,09,36,17.40
2009,09,22,09,37,17.50
2009,09,22,09,38,17.60
2009,09,22,09,39,17.60
2009,09,22,09,40,17.60
2009,09,22,09,41,17.70
2009,09,22,09,42,17.70
2009,09,22,09,43,17.70
2009,09,22,09,44,17.80
2009,09,22,09,45,17.80
2009,09,22,09,46,17.90
2009,09,22,09,47,17.90
2009,09,22,09,48,17.90
2009,09,22,09,49,18.00
2009,09,22,09,50,18.10
2009,09,22,09,51,18.10
2009,09,22,09,52,18.20
2009,09,22,09,53,18.20
2009,09,22,09,54,18.30
2009,09,22,09,55,18.40
2009,09,22,09,56,18.50
2009,09,22,09,57,18.60
2009,09,22,09,58,18.70
2009,09,22,09,59,18.80
2009,09,22,10,00,18.90
2009,09,22,10,01,18.90
2009,09,22,10,02,19.00
2009,09,22,10,03,19.20
2009,09,22,10,04,19.30
2009,09,22,10,05,19.40
2009,09,22,10,06,19.50
2009,09,22,10,07,19.60
2009,09,22,10,08,19.60
2009,09,22,10,09,19.70
2009,09,22,10,10,19.80
2009,09,22,10,11,19.80
2009,09,22,10,12,19.80
2009,09,22,10,13,19.80
2009,09,22,10,14,19.80
2009,09,22,10,15,19.70
2009,09,22,10,16,19.70
2009,09,22,10,17,19.80
2009,09,22,10,18,19.80
2009,09,22,10,19,19.80
2009,09,22,10,20,19.80
2009,09,22,10,21,19.80
2009,09,22,10,22,19.80
2009,09,22,10,23,19.80
2009,09,22,10,24,19.80
2009,09,22,10,25,19.90
2009,09,22,10,26,19.90
2009,09,22,10,27,20.00
2009,09,22,10,28,20.10
2009,09,22,10,29,20.10
2009,09,22,10,30,20.10
2009,09,22,10,31,20.10
2009,09,22,10,32,20.10
2009,09,22,10,33,20.10
2009,09,22,10,34,20.10
2009,09,22,10,35,20.10
2009,09,22,10,36,20.10
2009,09,22,10,37,20.10
2009,09,22,10,38,20.10
2009,09,22,10,39,20.10
2009,09,22,10,40,20.20
2009,09,22,10,41,20.20
2009,09,22,10,42,20.20
2009,09,22,10,43,20.10
2009,09,22,10,44,20.10
2009,09,22,10,45,20.10
2009,09,22,10,46,20.10
2009,09,22,10,47,20.10
2009,09,22,10,48,20.10
2009,09,22,10,49,20.10
2009,09,22,10,50,20.20
2009,09,22,10,51,20.20
2009,09,22,10,52,20.20
2009,09,22,10,53,20.20
2009,09,22,10,54,20.20
2009,09,22,10,55,20.20
2009,09,22,10,56,20.20
2009,09,22,10,57,20.20
2009,09,22,10,58,20.30
2009,09,22,10,59,20.30
2009,09,22,11,00,20.30
2009,09,22,11,01,20.30
2009,09,22,11,02,20.40
2009,09,22,11,03,20.40
2009,09,22,11,04,20.50
2009,09,22,11,05,20.50
2009,09,22,11,06,20.60
2009,09,22,11,07,20.60
2009,09,22,11,08,20.50
2009,09,22,11,09,20.40
2009,09,22,11,10,20.40
2009,09,22,11,11,20.30
2009,09,22,11,12,20.20
2009,09,22,11,13,20.20
2009,09,22,11,14,20.20
2009,09,22,11,15,20.20
2009,09,22,11,16,20.20
2009,09,22,11,17,20.30
2009,09,22,11,18,20.30
2009,09,22,11,19,20.30
2009,09,22,11,20,20.40
2009,09,22,11,21,20.50
2009,09,22,11,22,20.50
2009,09,22,11,23,20.60
2009,09,22,11,24,20.60
2009,09,22,11,25,20.60
2009,09,22,11,26,20.70
2009,09,22,11,27,20.70
2009,09,22,11,28,20.70
2009,09,22,11,29,20.80
2009,09,22,11,30,20.80
2009,09,22,11,31,20.90
2009,09,22,11,32,20.90
2009,09,22,11,33,20.90
2009,09,22,11,34,20.90
2009,09,22,11,35,20.90
2009,09,22,11,36,20.90
2009,09,22,11,37,21.00
2009,09,22,11,38,21.10
2009,09,22,11,39,21.10
2009,09,22,11,40,21.20
2009,09,22,11,41,21.20
2009,09,22,11,42,21.20
2009,09,22,11,43,21.20
2009,09,22,11,44,21.20
2009,09,22,11,45,21.20
2009,09,22,11,46,21.20
2009,09,22,11,47,21.30
2009,09,22,11,48,21.30
2009,09,22,11,49,21.30
2009,09,22,11,50,21.30
2009,09,22,11,51,21.40
2009,09,22,11,52,21.40
2009,09,22,11,53,21.40
2009,09,22,11,54,21.30
2009,09,22,11,55,21.30
2009,09,22,11,56,21.30
2009,09,22,11,57,21.30
2009,09,22,11,58,21.30
2009,09,22,11,59,21.30
2009,09,22,12,00,21.30
2009,09,22,12,01,21.30
2009,09,22,12,02,21.30
2009,09,22,12,03,21.30
2009,09,22,12,04,21.30
2009,09,22,12,05,21.30
2009,09,22,12,06,21.40
2009,09,22,12,07,21.40
2009,09,22,12,08,21.40
2009,09,22,12,09,21.40
2009,09,22,12,10,21.30
2009,09,22,12,11,21.30
2009,09,22,12,12,21.40
2009,09,22,12,13,21.40
2009,09,22,12,14,21.40
2009,09,22,12,15,21.40
2009,09,22,12,16,21.40
2009,09,22,12,17,21.40
2009,09,22,12,18,21.40
2009,09,22,12,19,21.40
2009,09,22,12,20,21.40
2009,09,22,12,21,21.40
2009,09,22,12,22,21.40
2009,09,22,12,23,21.40
2009,09,22,12,24,21.40
2009,09,22,12,25,21.40
2009,09,22,12,26,21.40
2009,09,22,12,27,21.40
2009,09,22,12,28,21.40
2009,09,22,12,29,21.40
2009,09,22,12,30,21.50
2009,09,22,12,31,21.50
2009,09,22,12,32,21.60
2009,09,22,12,33,21.60
2009,09,22,12,34,21.60
2009,09,22,12,35,21.60
2009,09,22,12,36,21.60
2009,09,22,12,37,21.60
2009,09,22,12,38,21.50
2009,09,22,12,39,21.50
2009,09,22,12,40,21.50
2009,09,22,12,41,21.60
2009,09,22,12,42,21.50
2009,09,22,12,43,21.50
2009,09,22,12,44,21.50
2009,09,22,12,45,21.50
2009,09,22,12,46,21.60
2009,09,22,12,47,21.70
2009,09,22,12,48,21.70
2009,09,22,12,49,21.70
2009,09,22,12,50,21.70
2009,09,22,12,51,21.70
2009,09,22,12,52,21.70
2009,09,22,12,53,21.70
2009,09,22,12,54,21.60
2009,09,22,12,55,21.60
2009,09,22,12,56,21.60
2009,09,22,12,57,21.60
2009,09,22,12,58,21.60
2009,09,22,12,59,21.60
2009,09,22,13,00,21.60
2009,09,22,13,01,21.60
2009,09,22,13,02,21.70
2009,09,22,13,03,21.70
2009,09,22,13,04,21.60
2009,09,22,13,05,21.60
2009,09,22,13,06,21.50
2009,09,22,13,07,21.40
2009,09,22,13,08,21.40
2009,09,22,13,09,21.30
2009,09,22,13,10,21.30
2009,09,22,13,11,21.40
2009,09,22,13,12,21.40
2009,09,22,13,13,21.50
2009,09,22,13,14,21.60
2009,09,22,13,15,21.70
2009,09,22,13,16,21.80
2009,09,22,13,17,21.80
2009,09,22,13,18,21.80
2009,09,22,13,19,21.90
2009,09,22,13,20,22.00
2009,09,22,13,21,22.10
2009,09,22,13,22,22.10
2009,09,22,13,23,22.20
2009,09,22,13,24,22.40
2009,09,22,13,25,22.50
2009,09,22,13,26,22.60
2009,09,22,13,27,22.60
2009,09,22,13,28,22.60
2009,09,22,13,29,22.70
2009,09,22,13,30,22.70
2009,09,22,13,31,22.70
2009,09,22,13,32,22.70
2009,09,22,13,33,22.70
2009,09,22,13,34,22.70
2009,09,22,13,35,22.80
2009,09,22,13,36,22.80
2009,09,22,13,37,22.80
2009,09,22,13,38,22.90
2009,09,22,13,39,22.90
2009,09,22,13,40,22.90
2009,09,22,13,41,22.90
2009,09,22,13,42,22.90
2009,09,22,13,43,22.90
2009,09,22,13,44,22.90
2009,09,22,13,45,22.90
2009,09,22,13,46,22.90
2009,09,22,13,47,22.90
2009,09,22,13,48,22.90
2009,09,22,13,49,22.90
2009,09,22,13,50,22.90
2009,09,22,13,51,22.90
2009,09,22,13,52,22.90
2009,09,22,13,53,22.90
2009,09,22,13,54,23.00
2009,09,22,13,55,23.00
2009,09,22,13,56,23.00
2009,09,22,13,57,22.90
2009,09,22,13,58,23.00
2009,09,22,13,59,23.00
2009,09,22,14,00,23.00
2009,09,22,14,01,23.10
2009,09,22,14,02,23.10
2009,09,22,14,03,23.20
2009,09,22,14,04,23.20
2009,09,22,14,05,23.30
2009,09,22,14,06,23.30
2009,09,22,14,07,23.30
2009,09,22,14,08,23.20
2009,09,22,14,09,23.20
2009,09,22,14,10,23.30
2009,09,22,14,11,23.30
2009,09,22,14,12,23.30
2009,09,22,14,13,23.30
2009,09,22,14,14,23.30
2009,09,22,14,15,23.30
2009,09,22,14,16,23.30
2009,09,22,14,17,23.30
2009,09,22,14,18,23.30
2009,09,22,14,19,23.30
2009,09,22,14,20,23.30
2009,09,22,14,21,23.30
2009,09,22,14,22,23.30
2009,09,22,14,23,23.40
2009,09,22,14,24,23.50
2009,09,22,14,25,23.50
2009,09,22,14,26,23.60
2009,09,22,14,27,23.70
2009,09,22,14,28,23.80
2009,09,22,14,29,23.80
2009,09,22,14,30,23.90
2009,09,22,14,31,23.90
2009,09,22,14,32,23.90
2009,09,22,14,33,24.00
2009,09,22,14,34,24.00
2009,09,22,14,35,24.10
2009,09,22,14,36,24.10
2009,09,22,14,37,24.00
2009,09,22,14,38,24.00
2009,09,22,14,39,23.90
2009,09,22,14,40,23.90
2009,09,22,14,41,23.90
2009,09,22,14,42,24.00
2009,09,22,14,43,24.00
2009,09,22,14,44,23.90
2009,09,22,14,45,23.90
2009,09,22,14,46,23.90
2009,09,22,14,47,23.90
2009,09,22,14,48,23.90
2009,09,22,14,49,23.80
2009,09,22,14,50,23.80
2009,09,22,14,51,23.80
2009,09,22,14,52,23.80
2009,09,22,14,53,23.90
2009,09,22,14,54,24.00
2009,09,22,14,55,24.00
2009,09,22,14,56,24.00
2009,09,22,14,57,24.00
2009,09,22,14,58,24.10
2009,09,22,14,59,24.10
2009,09,22,15,00,24.10
2009,09,22,15,01,24.10
2009,09,22,15,02,24.10
2009,09,22,15,03,24.20
2009,09,22,15,04,24.20
2009,09,22,15,05,24.20
2009,09,22,15,06,24.20
2009,09,22,15,07,24.20
2009,09,22,15,08,24.20
2009,09,22,15,09,24.20
2009,09,22,15,10,24.20
2009,09,22,15,11,24.20
2009,09,22,15,12,24.10
2009,09,22,15,13,24.10
2009,09,22,15,14,24.10
2009,09,22,15,15,24.10
2009,09,22,15,16,24.00
2009,09,22,15,17,24.00
2009,09,22,15,18,24.00
2009,09,22,15,19,24.00
2009,09,22,15,20,24.00
2009,09,22,15,21,24.00
2009,09,22,15,22,23.90
2009,09,22,15,23,24.00
2009,09,22,15,24,24.00
2009,09,22,15,25,24.00
2009,09,22,15,26,24.00
2009,09,22,15,27,24.00
2009,09,22,15,28,24.00
2009,09,22,15,29,24.10
2009,09,22,15,30,24.10
2009,09,22,15,31,24.20
2009,09,22,15,32,24.20
2009,09,22,15,33,24.20
2009,09,22,15,34,24.20
2009,09,22,15,35,24.20
2009,09,22,15,36,24.30
2009,09,22,15,37,24.30
2009,09,22,15,38,24.30
2009,09,22,15,39,24.40
2009,09,22,15,40,24.40
2009,09,22,15,41,24.40
2009,09,22,15,42,24.40
2009,09,22,15,43,24.40
2009,09,22,15,44,24.40
2009,09,22,15,45,24.50
2009,09,22,15,46,24.60
2009,09,22,15,47,24.60
2009,09,22,15,48,24.60
2009,09,22,15,49,24.60
2009,09,22,15,50,24.70
2009,09,22,15,51,24.70
2009,09,22,15,52,24.70
2009,09,22,15,53,24.70
2009,09,22,15,54,24.80
2009,09,22,15,55,24.80
2009,09,22,15,56,24.80
2009,09,22,15,57,24.80
2009,09,22,15,58,24.80
2009,09,22,15,59,24.80
2009,09,22,16,00,24.80
2009,09,22,16,01,24.80
2009,09,22,16,02,24.80
2009,09,22,16,03,24.80
2009,09,22,16,04,24.80
2009,09,22,16,05,24.70
2009,09,22,16,06,24.80
2009,09,22,16,07,24.80
2009,09,22,16,08,24.70
2009,09,22,16,09,24.70
2009,09,22,16,10,24.70
2009,09,22,16,11,24.70
2009,09,22,16,12,24.70
2009,09,22,16,13,24.70
2009,09,22,16,14,24.70
2009,09,22,16,15,24.70
2009,09,22,16,16,24.70
2009,09,22,16,17,24.60
2009,09,22,16,18,24.60
2009,09,22,16,19,24.50
2009,09,22,16,20,24.50
2009,09,22,16,21,24.50
2009,09,22,16,22,24.50
2009,09,22,16,23,24.50
2009,09,22,16,24,24.60
2009,09,22,16,25,24.60
2009,09,22,16,26,24.60
2009,09,22,16,27,24.60
2009,09,22,16,28,24.60
2009,09,22,16,29,24.70
2009,09,22,16,30,24.70
2009,09,22,16,31,24.70
2009,09,22,16,32,24.80
2009,09,22,16,33,24.80
2009,09,22,16,34,24.80
2009,09,22,16,35,24.80
2009,09,22,16,36,24.80
2009,09,22,16,37,24.80
2009,09,22,16,38,24.80
2009,09,22,16,39,24.80
2009,09,22,16,40,24.80
2009,09,22,16,41,24.80
2009,09,22,16,42,24.80
2009,09,22,16,43,24.80
2009,09,22,16,44,24.70
2009,09,22,16,45,24.70
2009,09,22,16,46,24.70
2009,09,22,16,47,24.70
2009,09,22,16,48,24.70
2009,09,22,16,49,24.70
2009,09,22,16,50,24.80
2009,09,22,16,51,24.80
2009,09,22,16,52,24.80
2009,09,22,16,53,24.80
2009,09,22,16,54,24.80
2009,09,22,16,55,24.80
2009,09,22,16,56,24.90
2009,09,22,16,57,24.90
2009,09,22,16,58,24.90
2009,09,22,16,59,25.00
2009,09,22,17,00,25.00
2009,09,22,17,01,25.10
2009,09,22,17,02,25.10
2009,09,22,17,03,25.10
2009,09,22,17,04,25.10
2009,09,22,17,05,25.20
2009,09,22,17,06,25.20
2009,09,22,17,07,25.20
2009,09,22,17,08,25.20
2009,09,22,17,09,25.20
2009,09,22,17,10,25.20
2009,09,22,17,11,25.20
2009,09,22,17,12,25.30
2009,09,22,17,13,25.30
2009,09,22,17,14,25.30
2009,09,22,17,15,25.20
2009,09,22,17,16,25.20
2009,09,22,17,17,25.20
2009,09,22,17,18,25.20
2009,09,22,17,19,25.20